Location: *
(60.1759°S, 155.0663°W)
Time: 11:45:01
(UTC+00:00)

Geosat - Pass Details

Date: 17 September 2019
Orbit: 763 x 766 km, 108.0° (Epoch: 18 October)

Event Time Altitude Azimuth Distance (km) Brightness Sun altitude
Rises 12:57:27 0° 142° (SE) 3,275 8.7 -24.3°
Reaches altitude 10° 12:59:45 10° 142° (SE) 2,344 7.6 -24.1°
Maximum altitude 13:04:52 84° 229° (SW) 790 3.9 -23.6°
Enters shadow 13:05:44 62° 308° (NW) 873 3.9 -23.5°
